DW0148 Weather Reports


time (UTC)temp
C
wind
direction
speed
KPH
gust
KPH
rain 1hr
cm
rain 24hr
cm
rain mn
cm
humidity
%
barometer
mb
20260831153556 30 205 0.0 0.0 0.00 0.00 0.00 72 1019.6
20260831153043 30 201 0.0 0.0 0.00 0.00 0.00 71 1019.6
20260831152521 30 259 0.0 0.0 0.00 0.00 0.00 75 1019.6
20260831151959 30 334 0.0 0.0 0.00 0.00 0.00 73 1019.6
20260831151442 30 221 0.0 0.0 0.00 0.00 0.00 75 1019.6
20260831150856 29 236 0.0 0.0 0.00 0.00 0.00 74 1019.6
20260831150343 29 276 0.0 0.0 0.00 0.00 0.00 77 1019.6
20260831145839 29 250 0.0 0.0 0.00 0.00 0.00 76 1019.6
20260831145317 29 285 0.0 0.0 0.00 0.00 0.00 74 1019.6
20260831144800 29 244 0.0 0.0 0.00 0.00 0.00 75 1019.6
20260831144216 28 149 0.0 0.0 0.00 0.00 0.00 74 1019.6
20260831143706 28 92 0.0 0.0 0.00 0.00 0.00 79 1019.6
20260831143201 28 276 0.0 0.0 0.00 0.00 0.00 78 1019.6
20260831142659 28 242 0.0 0.0 0.00 0.00 0.00 77 1019.6
20260831142114 28 162 0.0 0.0 0.00 0.00 0.00 78 1019.6
20260831141601 28 243 0.0 0.0 0.00 0.00 0.00 78 1019.6
20260831141057 28 197 0.0 0.0 0.00 0.00 0.00 80 1019.3
20260831140555 28 103 0.0 0.0 0.00 0.00 0.00 80 1019.3
20260831140020 28 172 0.0 0.0 0.00 0.00 0.00 81 1019.6
20260831135517 27 136 0.0 0.0 0.00 0.00 0.00 83 1019.6
20260831135013 27 181 0.0 0.0 0.00 0.00 0.00 84 1019.3
20260831134437 26 181 0.0 0.0 0.00 0.00 0.00 87 1019.3
20260831133933 26 181 0.0 0.0 0.00 0.00 0.00 89 1019.3
20260831133427 26 75 0.0 0.0 0.00 0.00 0.00 88 1019.6
20260831132920 25 91 0.0 0.0 0.00 0.00 0.00 94 1019.6
20260831132412 24 90 0.0 0.0 0.00 0.00 0.00 96 1019.6
20260831131901 23 89 0.0 0.0 0.00 0.00 0.00 95 1019.6
20260831131254 23 79 0.0 0.0 0.00 0.00 0.00 95 1019.6
20260831130752 23 41 0.0 0.0 0.00 0.00 0.00 95 1019.6
20260831130247 23 72 0.0 0.0 0.00 0.00 0.00 95 1019.6
20260831125745 22 73 0.0 0.0 0.00 0.00 0.00 95 1019.6
20260831125238 22 72 0.0 0.0 0.00 0.00 0.00 95 1019.3
20260831124735 22 72 0.0 0.0 0.00 0.00 0.00 95 1019.3
20260831124232 22 72 0.0 0.0 0.00 0.00 0.00 95 1019.3
20260831123728 21 72 0.0 0.0 0.00 0.00 0.00 95 1019.3
20260831123224 21 72 0.0 0.0 0.00 0.00 0.00 95 1019.3
20260831122716 21 72 0.0 0.0 0.00 0.00 0.00 95 1019.3
20260831122138 21 72 0.0 0.0 0.00 0.00 0.00 95 1019.3
20260831121556 21 72 0.0 0.0 0.00 0.00 0.00 95 1019.3
20260831121055 21 72 0.0 0.0 0.00 0.00 0.00 95 1019.3
20260831120549 21 73 0.0 0.0 0.00 0.00 0.00 95 1019.3
20260831120035 21 73 0.0 0.0 0.00 0.00 0.00 95 1019.0
20260831115529 21 72 0.0 0.0 0.00 0.00 0.00 95 1019.0
20260831115025 21 72 0.0 0.0 0.00 0.00 0.00 95 1019.0
20260831114520 21 72 0.0 0.0 0.00 0.00 0.00 95 1019.0
20260831114005 21 73 0.0 0.0 0.00 0.00 0.00 95 1019.0
20260831113414 21 72 0.0 0.0 0.00 0.00 0.00 95 1018.6
20260831112841 20 72 0.0 0.0 0.00 0.00 0.00 95 1018.6
20260831112339 20 72 0.0 0.0 0.00 0.00 0.00 95 1018.6
20260831111838 20 73 0.0 0.0 0.00 0.00 0.00 95 1018.6
20260831111335 20 72 0.0 0.0 0.00 0.00 0.00 95 1018.6